Regional Weather Roundup
Issued by NWS

Home | Current Version | Previous Version | Text Only | Print | Product List | Glossary Off
Versions: 1 2 3 4 5 6 7 8 9 10 11 12 13 14 15 16 17 18 19 20 21 22 23 24 25 26 27 28 29 30 31 32 33 34 35 36 37 38 39 40 41 42 43 44 45 46 47 48 49 50

036
ASUS43 KFSD 211102
RWRSD

WEATHER ROUNDUP FOR SOUTH DAKOTA
NATIONAL WEATHER SERVICE SIOUX FALLS SD
500 AM CST WED FEB 21 2018

NOTE: "FAIR" INDICATES FEW OR NO CLOUDS BELOW 12,000 FEET WITH NO
SIGNIFICANT WEATHER AND/OR OBSTRUCTIONS TO VISIBILITY.


SDZ001>005-009-010-012>017-211200-
NORTHWEST AND NORTH CENTRAL SOUTH DAKOTA

CITY           SKY/WX    TMP DP  RH WIND       PRES   REMARKS
BUFFALO          N/A     -6 -14  68 S9        30.17R WCI -23
FAITH            N/A     -5 -12  72 SW7       30.32S WCI -19
MOBRIDGE       CLEAR    -10 -17  71 CALM      30.37R
$$

SDZ012>016-024>037-041>051-057-063-072>074-211200-
SOUTHWEST AND SOUTH CENTRAL SOUTH DAKOTA

CITY           SKY/WX    TMP DP  RH WIND       PRES   REMARKS
RAPID CTY ARPT PTCLDY   -12 -17  78 CALM      30.27S
PIERRE         PTCLDY    -6 -12  75 CALM      30.44R
CUSTER         PTCLDY    -3 -11  68 CALM      30.08S
ELLSWORTH AFB  PTCLDY    -6 -12  76 NW6       30.26S WCI -19
PHILIP         PTCLDY   -17 -21  82 CALM      30.40S
PINE RIDGE     CLEAR    -18 -22  82 NE3       30.29F
SPEARFISH        N/A     -4 -11  71 S6        30.21S WCI -16
WINNER         FAIR       1 -10  60 SW6       30.43S WCI -10
$$

SDZ004>011-016>023-039-040-211200-
NORTHEAST SOUTH DAKOTA

CITY           SKY/WX    TMP DP  RH WIND       PRES   REMARKS
ABERDEEN       CLEAR    -13 -18  78 SW7       30.46R WCI -29
WATERTOWN      CLOUDY    -9 -13  83 W7        30.42R WCI -24
BROOKINGS        N/A     -6 -11  79 MISG        N/A
SISSETON         N/A     -1  -9  68 NW5       30.42R WCI -11
$$

SDZ017-020-022-023-036>040-048>070-211200-
SOUTHEAST SOUTH DAKOTA

CITY           SKY/WX    TMP DP  RH WIND       PRES   REMARKS
SIOUX FALLS    CLOUDY    -3  -8  79 W3        30.50S
HURON          CLEAR     -5 -11  75 SW7       30.49S WCI -19
CHAMBERLAIN    PTCLDY    -5 -10  76 SW6       30.47S WCI -17
MITCHELL       CLEAR     -2  -9  72 W10       30.52R WCI -19
YANKTON        CLOUDY     1  -4  79 SW3       30.54R
$$

ABBREVIATIONS USED IN REMARKS
   TC - TEMPERATURE IN CELSIUS
  WCI - WIND CHILL INDEX
   HX - HEAT INDEX
  VSB - VISIBILITY





USA.gov is the U.S. government's official web portal to all federal, state and local government web resources and services.